Location: Ajisawe
(8.4333°N, 4.3833°E)
Time: 22:10:17
(UTC+00:00)

Vanguard 1 Rocket - Pass Details

Date: 20 April 2021
Orbit: 652 x 4224 km, 34.3° (Epoch: 10 May)

Event Time Altitude Azimuth Distance (km) Brightness Sun altitude
Rises 19:52:18 0° 306° (NW) 3,568 11.5 -29.6°
Reaches altitude 10° 19:54:20 10° 306° (NW) 2,846 10.8 -30.1°
Maximum altitude 20:01:16 88° 36° (NE) 1,540 8.3 -31.7°
Enters shadow 20:03:14 64° 121° (ESE) 1,845 8.5 -32.1°
